Lubbock, TX

10:45 AM CDT on April 30, 2017 (GMT -0500)
Lubbock International

Weather History for KLBB - December, 2012

Change the Weather History Date:

Thursday, December 20, 2012

  Actual Average Record
Temperature  
Mean Temperature 35 °F 40 °F  
Max Temperature 51 °F 53 °F 80 °F (1921)
Min Temperature 18 °F 26 °F 3 °F (1924)
Degree Days  
Heating Degree Days 30 25  
Month to date heating degree days 353 475  
Since 1 July heating degree days 874 1117  
Cooling Degree Days 0 0  
Month to date cooling degree days 0 0  
Year to date cooling degree days 2322 1804  
Moisture  
Dew Point 5 °F    
Average Humidity 35    
Maximum Humidity 57    
Minimum Humidity 12    
Precipitation  
Precipitation 0.00 in 0.02 in 1.00 in (1997)
Month to date precipitation 0.16 0.51  
Year to date precipitation 10.91 18.87  
Snow  
Snow 0.00 in 0.10 in 1.30 in (1999)
Month to date snowfall 0.2 1.4  
Since 1 July snowfall 0.2 2.3  
Snow Depth 0.00 in    
Sea Level Pressure  
Sea Level Pressure 30.36 in    
Wind  
Wind Speed 11 mph (WNW)    
Max Wind Speed 28 mph    
Max Gust Speed 36 mph    
Visibility 10 miles    
Events      
T = Trace of Precipitation, MM = Missing Value Source: NWS Daily Summary

Daily Weather History Graph

Daily Weather History Graph

Search for Another Location

Airport or City:

Trip Planner

Search our weather history database for the weather conditions in past years. The results will help you decide how hot, cold, wet, or windy it might be!

Date:

Astronomy

Dec. 20, 2012 Rise Set
Actual Time 7:47 AM CST 5:42 PM CST
Civil Twilight 7:20 AM CST 6:10 PM CST
Nautical Twilight 6:48 AM CST 6:41 PM CST
Astronomical Twilight 6:18 AM CST 7:12 PM CST
Moon 12:48 PM CST (12/20) 12:51 AM CST (12/20)
Length of Visible Light 10h 50m
Length of Day
9h 55m
First Quarter, 55% of the Moon is Illuminated
Dec 20
First Quarter
Dec 28
Full
Jan 4
Last Quarter
Jan 11
New
Jan 18
First Quarter

Hourly Weather History & Observations

Time (CST) Temp. Windchill Dew Point Humidity Pressure Visibility Wind Dir Wind Speed Gust Speed Precip Events Conditions
12:53 AM 28.9 °F 14.8 °F 12.9 °F 51% 30.14 in 10.0 mi NNW 24.2 mph 33.4 mph N/A   Clear
1:53 AM 28.0 °F 15.3 °F 10.0 °F 47% 30.18 in 10.0 mi NNW 18.4 mph 25.3 mph N/A   Clear
2:53 AM 26.1 °F 14.0 °F 10.0 °F 51% 30.21 in 10.0 mi NW 15.0 mph - N/A   Clear
3:53 AM 25.0 °F 12.6 °F 9.0 °F 51% 30.25 in 10.0 mi NW 15.0 mph - N/A   Clear
4:53 AM 23.0 °F 10.1 °F 9.0 °F 55% 30.27 in 10.0 mi NW 15.0 mph - N/A   Clear
5:53 AM 21.0 °F 9.3 °F 8.1 °F 57% 30.30 in 10.0 mi WNW 11.5 mph - N/A   Clear
6:53 AM 19.9 °F 9.3 °F 7.0 °F 57% 30.34 in 10.0 mi WNW 9.2 mph - N/A   Clear
7:53 AM 19.0 °F 6.1 °F 6.1 °F 57% 30.40 in 10.0 mi West 12.7 mph - N/A   Clear
8:53 AM 25.0 °F 14.2 °F 6.1 °F 45% 30.43 in 10.0 mi WNW 11.5 mph - N/A   Clear
9:53 AM 32.0 °F 22.1 °F 5.0 °F 32% 30.45 in 10.0 mi WNW 13.8 mph - N/A   Clear
10:53 AM 39.0 °F 30.6 °F 3.9 °F 23% 30.46 in 10.0 mi WNW 15.0 mph - N/A   Clear
11:53 AM 41.0 °F 33.5 °F 8.1 °F 26% 30.44 in 10.0 mi WNW 13.8 mph - N/A   Clear
12:53 PM 44.1 °F 37.1 °F 10.0 °F 25% 30.40 in 10.0 mi West 15.0 mph - N/A   Clear
1:53 PM 48.0 °F - 7.0 °F 19% 30.38 in 10.0 mi WNW 9.2 mph - N/A   Clear
2:53 PM 50.0 °F - 1.0 °F 13% 30.36 in 10.0 mi WNW 12.7 mph 17.3 mph N/A   Clear
3:53 PM 51.1 °F - -0.9 °F 12% 30.36 in 10.0 mi NW 9.2 mph - N/A   Clear
4:53 PM 50.0 °F - -0.9 °F 12% 30.37 in 10.0 mi WNW 5.8 mph - N/A   Clear
5:53 PM 43.0 °F - 1.0 °F 17% 30.39 in 10.0 mi Calm Calm - N/A   Partly Cloudy
6:53 PM 39.0 °F - 1.0 °F 20% 30.41 in 10.0 mi Calm Calm - N/A   Partly Cloudy
7:53 PM 37.9 °F 35.5 °F 1.0 °F 21% 30.43 in 10.0 mi SSW 3.5 mph - N/A   Clear
8:53 PM 34.0 °F 29.8 °F 3.0 °F 27% 30.43 in 10.0 mi SW 4.6 mph - N/A   Clear
9:53 PM 35.1 °F 31.0 °F 3.0 °F 26% 30.42 in 10.0 mi SSW 4.6 mph - N/A   Clear
10:53 PM 30.9 °F 23.5 °F 3.0 °F 31% 30.42 in 10.0 mi WSW 8.1 mph - N/A   Clear
11:53 PM 28.0 °F 20.0 °F 3.0 °F 34% 30.41 in 10.0 mi West 8.1 mph - N/A   Clear